| time (UTC) | temp F | wind direction | speed MPH | gust MPH | rain 1hr in | rain 24hr in | rain mn in | humidity % | barometer mb |
| 20260904062605 | 68 | 22 | 1.0 | 2.0 | 0.00 | 0.00 | 0.00 | 70 | 1009.7 |
| 20260904062104 | 68 | 74 | 1.0 | 2.0 | 0.00 | 0.00 | 0.00 | 70 | 1009.7 |
| 20260904060604 | 69 | 292 | 1.0 | 2.0 | 0.00 | 0.00 | 0.00 | 65 | 1009.6 |
| 20260904060105 | 69 | 289 | 2.0 | 2.0 | 0.00 | 0.00 | 0.00 | 66 | 1009.6 |
| 20260904054104 | 69 | 349 | 1.0 | 2.0 | 0.00 | 0.00 | 0.00 | 68 | 1009.6 |
| 20260904053604 | 69 | 284 | 1.0 | 2.0 | 0.00 | 0.00 | 0.00 | 67 | 1009.6 |
| 20260904052605 | 69 | 261 | 1.0 | 2.0 | 0.00 | 0.00 | 0.00 | 67 | 1009.6 |
| 20260904052104 | 69 | 309 | 2.0 | 2.0 | 0.00 | 0.00 | 0.00 | 66 | 1009.6 |
| 20260904051105 | 69 | 305 | 1.0 | 2.0 | 0.00 | 0.00 | 0.00 | 68 | 1009.6 |
| 20260904044605 | 70 | 192 | 1.0 | 1.0 | 0.00 | 0.00 | 0.00 | 64 | 1009.6 |
| 20260904044104 | 71 | 189 | 1.0 | 1.0 | 0.00 | 0.00 | 0.00 | 63 | 1009.6 |
| 20260904043105 | 71 | 194 | 1.0 | 1.0 | 0.00 | 0.00 | 0.00 | 63 | 1009.6 |
| 20260904042104 | 72 | 206 | 1.0 | 1.0 | 0.00 | 0.00 | 0.00 | 61 | 1009.5 |
| 20260904034604 | 76 | 127 | 1.0 | 2.0 | 0.00 | 0.00 | 0.00 | 51 | 1009.1 |
| 20260904033105 | 75 | 142 | 1.0 | 2.0 | 0.00 | 0.00 | 0.00 | 52 | 1009.1 |
| 20260904031604 | 75 | 153 | 1.0 | 2.0 | 0.00 | 0.00 | 0.00 | 53 | 1009.0 |
| 20260904031104 | 75 | 341 | 1.0 | 1.0 | 0.00 | 0.00 | 0.00 | 52 | 1009.0 |
| 20260904030604 | 76 | 8 | 1.0 | 1.0 | 0.00 | 0.00 | 0.00 | 51 | 1009.0 |
| 20260904030104 | 76 | 358 | 0.0 | 1.0 | 0.00 | 0.00 | 0.00 | 51 | 1008.9 |
| 20260904025104 | 77 | 75 | 1.0 | 1.0 | 0.00 | 0.00 | 0.00 | 48 | 1008.7 |
| 20260904023105 | 79 | 210 | 1.0 | 2.0 | 0.00 | 0.00 | 0.00 | 45 | 1009.0 |
| 20260904022604 | 79 | 207 | 1.0 | 2.0 | 0.00 | 0.00 | 0.00 | 45 | 1009.1 |
| 20260904020104 | 81 | 242 | 1.0 | 2.0 | 0.00 | 0.00 | 0.00 | 42 | 1009.2 |
| 20260904015604 | 82 | 209 | 1.0 | 2.0 | 0.00 | 0.00 | 0.00 | 40 | 1009.3 |
| 20260904014604 | 82 | 235 | 2.0 | 3.0 | 0.00 | 0.00 | 0.00 | 39 | 1009.3 |
| 20260904013604 | 83 | 308 | 2.0 | 3.0 | 0.00 | 0.00 | 0.00 | 39 | 1009.4 |
| 20260904012604 | 83 | 227 | 1.0 | 3.0 | 0.00 | 0.00 | 0.00 | 39 | 1009.4 |
| 20260904005604 | 87 | 320 | 1.0 | 2.0 | 0.00 | 0.00 | 0.00 | 35 | 1009.5 |
| 20260904004604 | 87 | 0 | 1.0 | 2.0 | 0.00 | 0.00 | 0.00 | 34 | 1009.6 |
| 20260904003605 | 87 | 329 | 1.0 | 2.0 | 0.00 | 0.00 | 0.00 | 35 | 1009.5 |
| 20260904003105 | 87 | 335 | 2.0 | 2.0 | 0.00 | 0.00 | 0.00 | 36 | 1009.6 |
| 20260904002104 | 88 | 341 | 2.0 | 3.0 | 0.00 | 0.00 | 0.00 | 35 | 1009.6 |
| 20260904001604 | 88 | 323 | 1.0 | 2.0 | 0.00 | 0.00 | 0.00 | 36 | 1009.6 |
| 20260904001105 | 88 | 352 | 1.0 | 5.0 | 0.00 | 0.00 | 0.00 | 34 | 1009.4 |
| 20260903235604 | 87 | 288 | 1.0 | 2.0 | 0.00 | 0.00 | 0.00 | 34 | 1009.8 |
| 20260903234105 | 87 | 303 | 1.0 | 2.0 | 0.00 | 0.00 | 0.00 | 37 | 995.6 |
| 20260903233604 | 67 | 0 | 0.0 | 0.0 | 0.00 | 0.00 | 0.00 | 73 | 1014.8 |
| 20260903232604 | 67 | 0 | 0.0 | 0.0 | 0.00 | 0.00 | 0.00 | 73 | 1014.8 |
| 20260903232104 | 67 | 0 | 0.0 | 0.0 | 0.00 | 0.00 | 0.00 | 73 | 1014.8 |
| 20260903230104 | 67 | 0 | 0.0 | 0.0 | 0.00 | 0.00 | 0.00 | 73 | 1014.8 |
| 20260903155604 | 67 | 152 | 1.0 | 3.0 | 0.00 | 0.00 | 0.00 | 73 | 1014.8 |
| 20260903154104 | 65 | 184 | 2.0 | 5.0 | 0.00 | 0.00 | 0.00 | 74 | 1014.8 |
| 20260903153604 | 65 | 188 | 1.0 | 5.0 | 0.00 | 0.00 | 0.00 | 75 | 1014.9 |
| 20260903153104 | 65 | 127 | 0.0 | 2.0 | 0.00 | 0.00 | 0.00 | 76 | 1014.8 |
| 20260903152104 | 64 | 138 | 0.0 | 5.0 | 0.00 | 0.00 | 0.00 | 80 | 1014.8 |
| 20260903145604 | 59 | 193 | 0.0 | 2.0 | 0.00 | 0.00 | 0.00 | 88 | 1014.9 |
| 20260903143604 | 58 | 136 | 0.0 | 1.0 | 0.00 | 0.00 | 0.00 | 89 | 1014.6 |
| 20260903142104 | 57 | 131 | 0.0 | 0.0 | 0.00 | 0.00 | 0.00 | 89 | 1014.3 |
| 20260903141603 | 57 | 131 | 0.0 | 0.0 | 0.00 | 0.00 | 0.00 | 88 | 1014.2 |
| 20260903134604 | 56 | 229 | 0.0 | 0.0 | 0.00 | 0.00 | 0.00 | 88 | 1013.8 |
| 20260903133604 | 57 | 229 | 0.0 | 0.0 | 0.00 | 0.00 | 0.00 | 88 | 1013.7 |
| 20260903133104 | 57 | 229 | 0.0 | 0.0 | 0.00 | 0.00 | 0.00 | 88 | 1013.6 |
| 20260903131604 | 56 | 229 | 0.0 | 0.0 | 0.00 | 0.00 | 0.00 | 89 | 1013.5 |
| 20260903130104 | 56 | 229 | 0.0 | 0.0 | 0.00 | 0.00 | 0.00 | 88 | 1013.3 |
| 20260903125103 | 56 | 229 | 0.0 | 0.0 | 0.00 | 0.00 | 0.00 | 87 | 1013.3 |
| 20260903124604 | 56 | 229 | 0.0 | 0.0 | 0.00 | 0.00 | 0.00 | 87 | 1013.3 |
| 20260903123104 | 57 | 229 | 0.0 | 0.0 | 0.00 | 0.00 | 0.00 | 86 | 1013.4 |
| 20260903115104 | 58 | 229 | 0.0 | 0.0 | 0.00 | 0.00 | 0.00 | 86 | 1013.4 |
| 20260903113603 | 58 | 229 | 0.0 | 0.0 | 0.00 | 0.00 | 0.00 | 85 | 1013.3 |
| 20260903112104 | 59 | 238 | 0.0 | 0.0 | 0.00 | 0.00 | 0.00 | 85 | 1013.3 |
| 20260903111604 | 59 | 238 | 0.0 | 0.0 | 0.00 | 0.00 | 0.00 | 85 | 1013.3 |
| 20260903110104 | 59 | 238 | 0.0 | 0.0 | 0.00 | 0.00 | 0.00 | 85 | 1013.2 |
| 20260903105604 | 59 | 238 | 0.0 | 0.0 | 0.00 | 0.00 | 0.00 | 85 | 1013.3 |
| 20260903104604 | 59 | 238 | 0.0 | 0.0 | 0.00 | 0.00 | 0.00 | 85 | 1013.3 |
| 20260903103604 | 59 | 238 | 0.0 | 0.0 | 0.00 | 0.00 | 0.00 | 84 | 1013.2 |
| 20260903103104 | 60 | 238 | 0.0 | 0.0 | 0.00 | 0.00 | 0.00 | 85 | 1013.2 |
| 20260903102104 | 60 | 238 | 0.0 | 0.0 | 0.00 | 0.00 | 0.00 | 82 | 1013.2 |
| 20260903101103 | 60 | 238 | 0.0 | 0.0 | 0.00 | 0.00 | 0.00 | 82 | 1013.2 |
| 20260903100603 | 61 | 238 | 0.0 | 0.0 | 0.00 | 0.00 | 0.00 | 82 | 1013.1 |
| 20260903095604 | 61 | 238 | 0.0 | 0.0 | 0.00 | 0.00 | 0.00 | 81 | 1013.1 |
| 20260903094604 | 61 | 238 | 0.0 | 0.0 | 0.00 | 0.00 | 0.00 | 80 | 1013.2 |
| 20260903094103 | 61 | 238 | 0.0 | 0.0 | 0.00 | 0.00 | 0.00 | 80 | 1013.2 |
| 20260903093604 | 61 | 238 | 0.0 | 0.0 | 0.00 | 0.00 | 0.00 | 80 | 1013.2 |
| 20260903093104 | 61 | 238 | 0.0 | 0.0 | 0.00 | 0.00 | 0.00 | 80 | 1013.2 |
| 20260903092104 | 61 | 238 | 0.0 | 0.0 | 0.00 | 0.00 | 0.00 | 80 | 1013.2 |
| 20260903091604 | 61 | 238 | 0.0 | 0.0 | 0.00 | 0.00 | 0.00 | 80 | 1013.3 |
| 20260903091104 | 61 | 238 | 0.0 | 0.0 | 0.00 | 0.00 | 0.00 | 79 | 1013.3 |
| 20260903085604 | 62 | 238 | 0.0 | 0.0 | 0.00 | 0.00 | 0.00 | 77 | 1013.4 |
| 20260903085104 | 62 | 288 | 0.0 | 0.0 | 0.00 | 0.00 | 0.00 | 77 | 1013.4 |
| 20260903084104 | 63 | 288 | 0.0 | 0.0 | 0.00 | 0.00 | 0.00 | 75 | 1013.3 |
| 20260903083103 | 64 | 288 | 0.0 | 0.0 | 0.00 | 0.00 | 0.00 | 74 | 1013.3 |
| 20260903082604 | 64 | 288 | 0.0 | 0.0 | 0.00 | 0.00 | 0.00 | 73 | 1013.3 |
| 20260903082103 | 65 | 288 | 0.0 | 0.0 | 0.00 | 0.00 | 0.00 | 72 | 1013.3 |
| 20260903075604 | 67 | 288 | 0.0 | 0.0 | 0.00 | 0.00 | 0.00 | 64 | 1013.3 |
| 20260903075104 | 67 | 288 | 0.0 | 0.0 | 0.00 | 0.00 | 0.00 | 63 | 1013.2 |
| 20260903073604 | 67 | 288 | 0.0 | 1.0 | 0.00 | 0.00 | 0.00 | 64 | 1013.2 |
| 20260903071603 | 66 | 297 | 0.0 | 1.0 | 0.00 | 0.00 | 0.00 | 67 | 1013.1 |
| 20260903070103 | 65 | 315 | 0.0 | 0.0 | 0.00 | 0.00 | 0.00 | 70 | 1013.1 |
| 20260903065604 | 65 | 315 | 0.0 | 0.0 | 0.00 | 0.00 | 0.00 | 71 | 1013.0 |
| 20260903063604 | 65 | 314 | 0.0 | 0.0 | 0.00 | 0.00 | 0.00 | 74 | 1013.0 |